Location: Hokitika
(42.7170°S, 170.9670°E)
Time: 19:32:32
(UTC+13:00)

CENTAUR R/B - Pass Details

Date: 24 January 2019
Orbit: 791 x 1397 km, 63.5° (Epoch: 16 February)

Event Time Altitude Azimuth Distance (km) Brightness Sun altitude
Exits shadow 23:28:59 24° 72° (ENE) 2,344 4.0 -20.3°
Drops below altitude 10° 23:34:25 10° 119° (ESE) 3,066 5.0 -20.8°
Sets 23:37:32 0° 132° (SE) 3,929 5.8 -21.1°
